Home   Weather   Qyzylorda   Past weeks

Flag for Kazakhstan Past Weather in Qyzylorda, Kazakhstan — Yesterday and Last 2 Weeks

30 °F

Passing clouds.

Feels Like: 24 °F
Forecast: 21 / 38 °F
Wind: 6 mph from North

Location: Kzyl-Orda

Current Time: Oct 22, 2016 at 11:55:08 PM

Latest Report: Oct 22, 2016 at 11:00 PM

Visibility: N/A

Pressure: 30.60 "Hg

Humidity: 59%

Dew Point: 18 °F

Location of QyzylordaLocation

Past Weather in Qyzylorda — Graph


Qyzylorda Temperature Yesterday

Maximum temperature yesterday: 45 °F (at 3:30 PM)
Minimum temperature yesterday: 34 °F (at 7:30 AM)
Average temperature yesterday: 38 °F

High & Low Weather Summary for the Past Weeks

High77 °F (Oct 11, 3:00 PM)100% (Oct 17, 8:00 PM)30.60 "Hg (Oct 17, 8:00 PM)
Low23 °F (Oct 14, 8:00 AM)11% (Oct 11, 5:30 PM)29.80 "Hg (Oct 12, 3:00 AM)
Average44 °F57%30.20 "Hg
* Reported Oct 7 10:00 PM — Oct 22 10:00 PM, Qyzylorda, Weather by CustomWeather, © 2016

Note: Actual official high and low records may vary slightly from our data, if they occured in-between our weather recording intervals... More about our weather records


Qyzylorda Weather History for the Previous 24 Hours

Scroll right to see more
Time TempWeatherWind HumidityBarometerVisibility
10:00 PM
Sat, Oct 22
30 °FPassing clouds.3 mph59%30.60 "HgN/A
9:00 PM30 °FPassing clouds.3 mph59%30.60 "HgN/A
8:30 PM32 °FPassing clouds.6 mph55%30.60 "HgN/A
8:00 PM34 °FPassing clouds.3 mph51%30.60 "HgN/A
7:30 PM36 °FPartly sunny.6 mph48%30.60 "HgN/A
7:00 PM37 °FPartly sunny.3 mph41%30.57 "HgN/A
6:30 PM37 °FPartly sunny.3 mph41%30.57 "HgN/A
6:00 PM39 °FScattered clouds.6 mph39%30.57 "HgN/A
5:30 PM39 °FScattered clouds.8 mph42%30.57 "HgN/A
5:00 PM41 °FScattered clouds.8 mph36%30.54 "HgN/A
4:30 PM41 °FScattered clouds.8 mph36%30.54 "HgN/A
4:00 PM41 °FScattered clouds.10 mph36%30.54 "HgN/A
3:30 PM41 °FScattered clouds.6 mph36%30.54 "HgN/A
3:00 PM41 °FScattered clouds.10 mph39%30.54 "HgN/A
2:30 PM41 °FScattered clouds.8 mph39%30.54 "HgN/A
2:00 PM39 °FScattered clouds.6 mph45%30.54 "HgN/A
1:30 PM41 °FScattered clouds.6 mph39%30.54 "HgN/A
1:00 PM39 °FPassing clouds.6 mph42%30.54 "HgN/A
12:30 PM39 °FSunny.6 mph45%30.54 "Hg10 mi
12:00 PM37 °FSunny.8 mph52%30.54 "Hg10 mi
11:30 AM37 °FSunny.10 mph52%30.54 "Hg10 mi
11:00 AM36 °FSunny.10 mph56%30.51 "Hg10 mi
10:30 AM36 °FPassing clouds.6 mph60%30.51 "HgN/A
10:00 AM30 °FSunny.3 mph69%30.51 "Hg10 mi
9:30 AM28 °FSunny.6 mph74%30.51 "Hg10 mi
9:00 AM25 °FClear.8 mph80%30.48 "Hg10 mi
8:30 AM25 °FPassing clouds.1 mph86%30.48 "HgN/A
8:00 AM25 °FPartly cloudy.3 mph80%30.45 "HgN/A
7:30 AM25 °FPassing clouds.6 mph80%30.45 "HgN/A
7:00 AM25 °FPassing clouds.6 mph86%30.45 "HgN/A
6:30 AM25 °FPassing clouds.6 mph86%30.45 "HgN/A
6:00 AM27 °FPassing clouds.6 mph80%30.45 "HgN/A
5:30 AM27 °FPassing clouds.6 mph80%30.42 "HgN/A
5:00 AM27 °FPassing clouds.6 mph80%30.42 "HgN/A
4:00 AM28 °FPassing clouds.6 mph74%30.42 "HgN/A
3:00 AM30 °FPassing clouds.6 mph69%30.39 "HgN/A
2:00 AM32 °FPassing clouds.6 mph64%30.39 "HgN/A
1:00 AM34 °FPassing clouds.8 mph65%30.39 "HgN/A
12:00 AM36 °FPassing clouds.8 mph60%30.39 "HgN/A
11:00 PM
Fri, Oct 21
37 °FPassing clouds.8 mph60%30.36 "HgN/A
Weather by CustomWeather, © 2016

See weather overviewHow to use our weather pages